Flag for Canada Weather past 2 weeks in Haldimand, Ontario, Canada

Now
81 °F

Sunny.


Feels Like: 81 °F
Forecast: 63 / 83 °F
Wind: 8 mph from Southwest

Location: Hamilton Airport

Current Time: Jul 22, 2014 at 2:26:27 PM

Latest Report: Jul 22, 2014 at 12:00 PM


Visibility: 15 mi

Pressure: 30.08 "Hg

Humidity: 48%

Dew point: 59 °F

Location of HaldimandLocation

Historic Weather in Haldimand — Graph

°F

Haldimand temperature yesterday

Maximum temperature yesterday: 82 °F (at 4:00 PM)
Minimum temperature yesterday: 59 °F (at 6:00 AM)
Average temperature yesterday: 70 °F

Past Weeks' High & Low Weather Summary

 TemperatureHumidityPressure
High82 °F (Jul 21, 4:00 PM)100% (Jul 8, 3:00 AM)30.25 "Hg (Jul 8, 3:00 AM)
Low48 °F (Jul 17, 5:00 AM)38% (Jul 17, 4:00 PM)29.52 "Hg (Jul 8, 4:00 PM)
Average66 °F78%29.97 "Hg
* Reported Jul 7 12:00 Noon — Jul 22 12:00 Noon, Haldimand, Weather by CustomWeather, © 2014

Note: Actual official high and low records may vary slightly from our data, if they occured in-between our weather recording intervals... More about our weather records

Advertising

Haldimand weather history for previous 24 hours

 ConditionsComfort  
Time TempWeatherWind HumidityBarometerVisibility
12:00 PM
Jul 22
81 °FSunny.8 mph48%30.08 "Hg15 mi
11:00 AM77 °FSunny.7 mph54%30.10 "Hg15 mi
10:00 AM75 °FSunny.6 mph61%30.11 "Hg15 mi
9:00 AM72 °FSunny.3 mph78%30.13 "Hg15 mi
8:00 AM68 °FSunny.3 mph88%30.12 "Hg15 mi
7:00 AM63 °FPassing clouds.3 mph94%30.12 "Hg15 mi
6:00 AM61 °FPassing clouds.3 mph94%30.11 "Hg12 mi
5:00 AM63 °FPassing clouds.5 mph94%30.11 "Hg15 mi
4:00 AM63 °FPassing clouds.3 mph94%30.11 "Hg15 mi
3:00 AM63 °FPassing clouds.5 mph94%30.11 "Hg15 mi
2:00 AM63 °FPassing clouds.5 mph94%30.11 "Hg15 mi
1:00 AM64 °FPassing clouds.5 mph94%30.12 "Hg15 mi
12:00 AM66 °FPassing clouds.3 mph94%30.12 "Hg15 mi
11:00 PM
Jul 21
68 °FPassing clouds.3 mph88%30.12 "Hg15 mi
10:00 PM70 °FPassing clouds.5 mph83%30.13 "Hg15 mi
9:00 PM72 °FScattered clouds.5 mph83%30.11 "Hg15 mi
8:00 PM77 °FScattered clouds.7 mph57%30.11 "Hg15 mi
7:00 PM81 °FPassing clouds.5 mph45%30.11 "Hg15 mi
6:00 PM81 °FPassing clouds.5 mph48%30.11 "Hg15 mi
5:00 PM81 °FScattered clouds.7 mph42%30.11 "Hg15 mi
4:00 PM82 °FScattered clouds.5 mph45%30.12 "Hg15 mi
3:00 PM81 °FPassing clouds.8 mph42%30.13 "Hg15 mi
2:00 PM81 °FPassing clouds.8 mph48%30.13 "Hg15 mi
Weather by CustomWeather, © 2014

See weather overviewHow to use our weather pages